Wind_Speed
9 9 9 8 8 9 9 9 9 10 10 10 10 11 11 11 12 13 13 12 11 11 11 10 10 10 10 11 11 12 12 12 12 12 12 12 13 13 13 13 13 13 13
10 10 10 10 9 9 9 10 10 10 11 10 11 11 11 11 12 12 13 12 11 11 11 11 11 11 10 11 11 12 12 12 12 13 13 12 12 13 13 13 13 13 13
10 10 10 10 10 10 11 10 10 10 11 11 11 11 11 11 11 12 12 12 12 11 11 11 11 11 11 11 11 12 13 12 12 13 13 13 13 13 13 12 12 13 13
11 11 11 11 11 11 11 11 11 12 11 11 11 11 10 11 11 11 11 12 12 12 11 11 11 11 11 12 12 12 12 12 12 12 12 13 13 13 13 13 13 13 14
12 12 12 11 11 12 12 12 12 12 12 12 12 11 11 11 11 11 11 12 12 12 12 11 11 12 12 12 12 12 11 11 11 12 12 13 13 13 13 13 13 13 14
12 12 12 12 12 12 12 12 12 12 12 12 13 13 12 12 12 12 13 13 13 13 14 13 13 12 12 12 12 11 11 12 12 12 12 13 13 14 13 13 13 13 13
13 13 13 13 12 12 12 13 13 13 13 13 14 13 13 13 13 13 14 14 15 14 15 14 14 13 13 12 13 13 13 12 13 13 12 13 14 14 14 14 14 13 13
13 14 13 13 13 13 13 13 13 14 14 14 14 14 14 14 13 14 14 14 15 15 15 14 13 13 13 13 13 14 14 13 13 13 14 14 14 14 14 14 14 14 14
15 15 15 15 15 15 14 14 14 14 14 14 14 14 14 14 14 14 14 14 15 15 15 14 14 13 13 14 13 13 14 14 14 14 15 15 14 14 14 14 15 15 15
16 16 15 15 16 16 15 15 15 15 15 15 15 15 15 14 14 14 15 15 15 15 15 15 14 14 14 15 14 14 14 14 15 15 15 15 15 15 15 15 15 14 14
17 17 17 16 16 17 17 17 16 16 16 16 16 16 15 15 15 15 14 14 15 15 15 15 15 15 15 15 15 15 15 15 14 15 15 15 15 15 15 15 15 15 15
17 17 17 18 18 18 17 17 17 17 17 17 16 16 16 16 16 16 15 14 15 16 16 16 16 16 16 15 15 15 15 15 15 15 15 16 15 15 15 15 16 16 16
17 18 18 18 18 18 18 17 17 17 17 18 18 18 18 18 17 17 16 16 16 16 16 17 17 16 16 17 17 16 17 17 16 16 16 16 16 16 17 17 17 17 17
18 18 18 18 17 18 18 18 18 18 17 18 19 19 19 19 18 18 17 17 17 17 17 17 18 18 18 18 18 18 18 18 17 17 17 16 17 17 17 17 17 18 18
18 18 18 18 18 18 18 18 18 18 18 18 18 18 19 19 19 20 19 20 20 19 19 19 19 20 20 19 19 19 19 18 18 18 18 18 17 18 18 18 18 18 19
19 19 19 19 19 19 19 19 19 18 18 18 19 19 19 19 20 21 21 21 21 21 21 21 21 22 22 21 20 20 20 20 20 20 20 20 19 19 19 20 19 19 19
20 20 20 21 20 20 20 20 20 19 19 19 20 20 20 21 21 22 22 23 23 23 23 23 23 23 24 23 22 22 22 21 21 21 22 22 22 21 21 21 21 21 21
21 21 21 21 21 21 22 21 21 21 21 21 21 21 22 22 22 23 23 23 24 24 24 24 24 25 25 25 24 24 23 23 22 23 23 23 23 23 23 22 22 22 22
21 20 20 21 22 22 22 23 22 22 22 22 22 23 23 23 23 24 24 25 25 25 25 26 26 26 27 27 26 25 25 25 24 24 24 25 25 24 24 24 24 24 24
20 21 21 21 22 22 22 23 22 23 23 24 24 24 23 24 24 25 25 25 26 26 26 26 27 27 28 29 28 27 27 26 25 25 26 26 26 25 24 24 25 25 25
21 21 21 21 21 22 22 23 23 23 23 24 24 24 24 24 25 25 26 26 26 26 26 26 28 29 30 30 29 28 28 27 26 26 26 26 26 25 25 26 26 26 26
22 23 23 22 22 23 24 24 24 24 25 25 26 26 25 25 25 26 27 27 27 27 27 26 27 28 29 30 30 29 29 29 28 28 28 27 27 26 27 27 27 26 26
23 24 24 24 24 24 25 25 26 26 26 27 27 27 27 27 27 27 28 28 29 29 29 27 28 28 29 30 30 30 30 29 29 29 29 28 28 27 27 27 27 26 26
24 24 24 25 25 25 26 26 27 27 28 28 28 28 29 29 29 29 30 30 30 30 30 29 29 29 29 29 30 29 29 29 29 29 30 29 29 28 28 28 28 27 27
26 26 26 26 26 26 27 27 28 28 29 29 29 29 30 30 31 31 31 30 30 30 30 30 29 29 29 29 30 30 29 29 29 30 30 30 30 30 29 29 29 29 29
27 28 28 28 28 28 28 29 29 30 30 30 31 31 31 31 31 32 32 31 31 30 31 31 31 31 30 30 30 31 30 30 30 30 31 31 31 31 31 31 31 31 31
Wind_Direction
289 290 286 284 284 286 282 280 281 279 275 273 274 271 265 263 258 257 256 257 259 260 263 265 269 268 261 258 259 261 262 265 262 258 259 258 259 260 262 262 262 262 262
283 284 284 284 285 286 281 279 283 284 281 276 274 273 269 264 260 257 255 256 257 260 262 264 268 267 263 261 260 261 261 263 262 260 259 258 260 262 264 262 262 262 263
279 280 282 283 282 282 282 282 283 282 278 276 275 272 269 266 264 259 255 254 256 258 259 261 265 264 263 264 263 261 261 263 261 259 259 259 260 263 264 263 265 264 265
279 279 279 280 280 280 279 280 281 281 280 278 275 273 272 268 265 262 258 254 254 258 259 261 263 263 263 263 263 262 260 263 262 259 256 255 258 260 261 264 267 267 265
280 282 282 279 280 282 282 281 280 280 278 276 272 270 271 268 268 264 261 257 255 257 260 263 263 263 263 263 262 261 260 259 260 259 257 257 259 259 263 266 269 269 267
282 284 282 280 281 283 283 282 280 280 279 277 271 268 269 269 268 265 262 261 260 258 260 261 262 261 262 264 264 262 261 259 258 259 259 259 261 263 264 266 267 271 269
280 282 282 282 282 283 282 282 280 280 279 278 272 270 269 267 266 267 266 264 262 260 259 260 262 262 260 261 263 262 263 263 261 260 259 259 259 264 265 266 268 271 272
282 281 282 282 281 282 282 282 281 278 278 278 273 269 269 268 266 266 267 266 263 261 258 257 259 261 261 261 263 261 259 260 261 262 261 260 261 263 263 265 268 271 273
281 280 281 281 279 280 280 279 280 277 276 275 272 269 268 267 267 268 268 266 263 259 256 256 256 258 261 261 262 263 259 258 261 263 263 263 263 262 263 266 268 270 272
280 279 281 282 281 280 278 277 278 276 273 273 271 269 267 268 270 270 268 265 261 257 256 256 257 257 258 261 264 265 264 262 263 264 263 262 263 263 263 265 267 268 271
279 280 281 282 282 282 277 276 276 274 271 270 270 268 266 267 268 269 268 264 262 259 258 257 257 256 258 260 261 263 264 264 265 264 264 263 261 263 264 266 266 268 270
282 282 282 282 281 283 281 275 275 274 272 270 268 267 265 264 265 266 266 265 264 263 261 259 257 256 256 257 258 260 261 264 264 265 265 265 263 262 263 264 265 267 270
281 281 282 281 281 282 283 278 274 273 272 270 268 267 265 263 263 262 263 262 263 263 263 262 258 256 257 258 260 262 262 265 266 266 266 266 265 265 263 263 265 267 269
280 280 281 281 282 282 281 279 273 272 272 271 269 268 265 263 262 261 260 260 261 262 264 264 263 260 260 261 263 263 263 265 267 266 266 266 265 264 263 264 266 268 270
279 280 280 281 282 281 280 280 274 273 274 273 272 270 269 266 263 261 261 261 261 261 262 264 265 263 261 261 263 263 264 265 267 267 266 265 266 264 264 265 267 269 270
277 278 279 280 280 280 279 278 276 274 276 275 275 274 272 267 264 262 262 263 263 263 262 262 262 262 261 260 261 263 262 264 265 266 266 265 265 266 266 266 267 270 271
278 278 278 278 278 277 278 277 276 273 274 275 276 275 273 270 266 264 263 263 263 263 263 261 261 260 260 260 260 261 261 262 264 265 265 264 265 267 267 268 268 269 271
278 278 278 277 277 277 276 275 275 275 274 275 276 276 275 272 269 267 266 264 264 264 264 263 261 260 259 259 260 260 260 261 263 264 264 264 265 267 267 267 269 269 271
278 276 277 277 278 278 276 274 274 275 275 276 277 278 276 273 271 269 267 265 266 267 265 263 262 260 260 260 260 260 260 260 262 263 264 264 264 265 267 266 267 268 269
278 276 278 279 278 278 278 275 273 274 275 275 277 278 276 274 272 271 270 268 268 268 266 264 262 261 260 260 260 260 260 260 262 262 263 263 263 264 266 265 266 267 267
278 277 278 281 281 280 279 277 274 274 275 275 276 277 277 276 274 273 271 270 269 269 268 266 264 263 262 261 260 259 260 260 262 262 263 263 264 265 267 267 267 267 266
279 279 279 280 281 281 281 280 277 275 275 276 276 276 276 275 274 274 272 271 270 269 270 269 268 265 263 261 259 258 258 260 262 263 264 265 266 267 268 268 267 268 267
279 280 280 280 281 282 282 282 280 278 278 278 276 275 275 275 274 274 274 273 272 270 269 270 269 267 265 262 260 259 259 260 262 263 264 266 266 267 267 267 267 268 268
280 279 279 280 281 281 282 282 281 280 279 279 278 275 274 274 274 274 274 274 273 271 269 269 268 267 264 262 260 260 260 261 263 264 263 264 265 266 267 267 266 267 267
281 280 278 279 280 280 281 281 280 280 279 279 278 277 276 275 275 274 274 274 273 271 270 267 266 266 265 263 261 261 262 263 265 266 264 265 265 266 266 266 267 267 267
281 280 279 279 279 280 280 281 280 280 279 279 278 278 277 275 275 273 272 273 272 270 269 267 265 265 265 263 262 261 262 264 264 265 265 266 267 266 265 267 268 268 268
Height
5854 5854 5853 5853 5853 5852 5852 5852 5851 5851 5851 5851 5850 5850 5850 5850 5850 5851 5851 5851 5851 5852 5852 5852 5852 5852 5852 5853 5853 5853 5853 5853 5853 5854 5854 5854 5854 5855 5855 5855 5855 5855 5855
5852 5851 5851 5851 5850 5850 5850 5849 5849 5849 5848 5848 5848 5847 5847 5847 5847 5848 5848 5848 5848 5849 5849 5850 5850 5850 5849 5850 5850 5850 5850 5850 5850 5850 5851 5851 5851 5852 5852 5852 5852 5852 5852
5849 5849 5849 5848 5848 5848 5847 5847 5847 5846 5846 5845 5845 5845 5845 5844 5844 5844 5845 5845 5846 5846 5846 5847 5847 5846 5846 5847 5847 5847 5847 5847 5847 5847 5848 5848 5848 5849 5849 5849 5849 5849 5849
5846 5846 5846 5845 5845 5845 5845 5844 5844 5843 5843 5843 5842 5842 5842 5842 5842 5842 5842 5842 5843 5843 5843 5843 5844 5844 5843 5844 5844 5844 5844 5844 5844 5844 5844 5845 5845 5845 5846 5846 5846 5846 5846
5843 5843 5843 5842 5842 5842 5841 5841 5841 5840 5840 5839 5839 5839 5839 5839 5839 5839 5839 5839 5840 5840 5840 5840 5840 5840 5840 5840 5841 5841 5841 5841 5841 5841 5841 5842 5842 5842 5843 5843 5842 5842 5842
5840 5840 5839 5839 5839 5838 5838 5837 5837 5837 5836 5836 5836 5836 5836 5835 5835 5835 5836 5836 5836 5837 5836 5836 5837 5837 5837 5837 5837 5838 5838 5838 5838 5838 5838 5838 5839 5839 5839 5839 5839 5839 5838
5836 5836 5836 5835 5835 5835 5834 5834 5833 5833 5832 5832 5832 5832 5832 5832 5832 5832 5832 5832 5832 5832 5832 5833 5833 5833 5833 5834 5834 5834 5834 5834 5835 5834 5835 5835 5835 5835 5836 5836 5836 5836 5835
5833 5832 5832 5832 5831 5831 5830 5829 5829 5829 5828 5828 5828 5828 5828 5828 5828 5828 5828 5828 5828 5828 5828 5829 5829 5830 5830 5830 5830 5831 5831 5831 5831 5831 5831 5831 5831 5832 5832 5832 5832 5832 5832
5828 5828 5828 5828 5827 5827 5826 5825 5825 5824 5824 5824 5824 5824 5824 5824 5824 5824 5823 5823 5823 5824 5824 5824 5825 5826 5826 5826 5827 5827 5827 5827 5827 5827 5828 5828 5828 5828 5828 5828 5828 5828 5827
5825 5824 5823 5823 5822 5822 5822 5821 5820 5820 5819 5819 5819 5819 5820 5820 5820 5820 5820 5819 5819 5820 5820 5820 5821 5822 5822 5823 5823 5823 5823 5823 5823 5823 5824 5824 5824 5824 5824 5824 5824 5824 5823
5820 5820 5819 5818 5818 5817 5817 5816 5816 5815 5815 5814 5814 5815 5815 5815 5815 5815 5815 5815 5815 5815 5816 5816 5817 5817 5818 5818 5819 5819 5819 5819 5819 5819 5819 5819 5819 5819 5819 5819 5819 5819 5819
5816 5815 5815 5814 5813 5813 5812 5811 5810 5810 5810 5810 5810 5810 5810 5810 5810 5811 5811 5811 5811 5811 5811 5812 5812 5813 5813 5814 5814 5814 5814 5814 5815 5815 5815 5815 5815 5815 5815 5815 5815 5815 5815
5811 5811 5810 5809 5809 5808 5807 5806 5805 5805 5805 5804 5805 5805 5805 5805 5805 5805 5806 5806 5806 5807 5807 5807 5808 5808 5809 5809 5809 5810 5810 5810 5810 5810 5810 5810 5810 5810 5810 5810 5810 5810 5810
5806 5805 5805 5804 5803 5802 5802 5801 5800 5800 5799 5799 5799 5799 5799 5799 5799 5800 5801 5801 5802 5802 5802 5802 5802 5803 5803 5804 5804 5805 5805 5805 5805 5805 5805 5805 5805 5805 5805 5805 5805 5805 5805
5801 5800 5799 5798 5798 5797 5796 5795 5795 5795 5794 5794 5793 5793 5792 5793 5793 5794 5795 5796 5797 5797 5797 5797 5797 5798 5798 5798 5799 5799 5799 5799 5800 5800 5800 5800 5800 5800 5800 5800 5800 5800 5799
5796 5795 5794 5793 5793 5792 5791 5790 5790 5789 5789 5788 5788 5787 5787 5787 5787 5788 5789 5790 5790 5791 5791 5792 5792 5792 5792 5793 5793 5793 5794 5794 5794 5794 5794 5794 5794 5794 5794 5794 5794 5794 5794
5790 5789 5788 5788 5787 5786 5786 5785 5784 5784 5784 5783 5782 5782 5781 5781 5781 5782 5782 5783 5783 5784 5785 5785 5785 5786 5786 5786 5787 5787 5787 5788 5788 5788 5788 5788 5788 5788 5788 5788 5788 5788 5787
5784 5784 5783 5782 5781 5780 5780 5779 5778 5778 5778 5777 5777 5776 5775 5775 5775 5775 5775 5776 5776 5777 5777 5778 5778 5778 5779 5779 5780 5780 5781 5781 5781 5781 5781 5782 5782 5782 5781 5781 5781 5781 5781
5778 5777 5777 5776 5775 5774 5773 5773 5772 5772 5771 5771 5770 5770 5769 5769 5769 5769 5768 5769 5769 5769 5769 5770 5771 5771 5771 5771 5772 5773 5773 5774 5774 5774 5774 5774 5775 5775 5775 5774 5774 5774 5774
5772 5771 5770 5769 5768 5768 5767 5766 5766 5765 5765 5764 5764 5763 5762 5762 5762 5761 5761 5761 5761 5761 5761 5761 5762 5762 5763 5763 5763 5764 5765 5766 5766 5766 5767 5767 5767 5767 5767 5767 5767 5767 5767
5765 5764 5764 5763 5762 5761 5760 5759 5759 5758 5758 5757 5757 5756 5755 5755 5754 5754 5753 5753 5753 5753 5753 5753 5753 5754 5754 5754 5755 5756 5757 5757 5758 5758 5759 5759 5759 5759 5759 5759 5759 5759 5759
5759 5758 5757 5756 5755 5754 5753 5752 5751 5751 5750 5750 5749 5748 5748 5747 5746 5746 5745 5745 5744 5744 5744 5744 5744 5745 5745 5745 5746 5747 5748 5749 5750 5750 5750 5751 5751 5751 5751 5751 5751 5751 5751
5752 5751 5750 5749 5748 5747 5745 5744 5743 5743 5742 5741 5741 5740 5740 5739 5738 5738 5737 5736 5736 5735 5736 5736 5736 5736 5736 5737 5737 5738 5739 5740 5741 5741 5741 5742 5742 5743 5743 5743 5743 5743 5743
5745 5743 5742 5741 5740 5739 5738 5737 5735 5735 5734 5733 5732 5731 5731 5730 5729 5729 5728 5728 5727 5727 5727 5727 5727 5727 5727 5727 5728 5729 5729 5730 5731 5732 5732 5733 5733 5734 5734 5734 5734 5734 5735
5737 5736 5734 5733 5732 5731 5729 5728 5727 5726 5725 5724 5723 5722 5721 5721 5720 5719 5719 5718 5718 5717 5717 5717 5717 5717 5718 5718 5719 5720 5720 5721 5722 5723 5723 5724 5724 5724 5725 5725 5725 5725 5726
5728 5727 5726 5724 5723 5722 5721 5719 5718 5717 5716 5715 5713 5712 5711 5710 5710 5708 5708 5708 5708 5708 5708 5708 5708 5708 5708 5709 5709 5710 5711 5712 5712 5713 5713 5714 5715 5715 5716 5716 5716 5716 5716